Location: Peterborough
(44.3091°N, 78.3197°W)
Time: 00:55:15
(UTC-04:00)

SR - Pass Details

Date: 27 March 2023
Orbit: 581 x 867 km, 66.7° (Epoch: 02 June)

Event Time Altitude Azimuth Distance (km) Brightness Sun altitude
Rises 04:01:27 0° 240° (WSW) 2,974 - -30.7°
Reaches altitude 10° 04:04:05 10° 252° (WSW) 2,021 - -30.4°
Maximum altitude 04:07:59 28° 311° (NW) 1,155 - -29.9°
Exits shadow 04:09:53 20° 352° (N) 1,390 ? -29.6°
Drops below altitude 10° 04:11:45 10° 12° (NNE) 1,934 ? -29.3°
Sets 04:14:12 0° 24° (NNE) 2,820 ? -29.0°
